Location: Martin
(32.0982°N, 93.2193°W)
Time: 13:20:44
(UTC+00:00)

ARIANE 6 FM1 Upper Stage - Visible Passes

Search period start: 20 September 2024 00:00
Search period end: 30 September 2024 00:00
Orbit: 566 x 594 km, 62.0° (Epoch: 19 September)

Date Brightness Start Highest point End Pass type
(mag) Time Alt. Az. Time Alt. Az. Time Alt. Az.
20 Sep 4.4 00:33:30 10° SSE 00:35:57 15° ESE 00:38:26 10° ENE visible
20 Sep 4.0 02:10:56 10° SW 02:14:56 39° NW 02:17:18 21° N visible
20 Sep 3.4 10:38:53 10° NNW 10:43:11 56° ENE 10:47:27 10° SE visible
21 Sep 3.7 00:36:55 10° S 00:40:29 27° ESE 00:44:05 10° ENE visible
21 Sep 5.0 02:16:17 10° WSW 02:19:45 24° NW 02:23:15 10° N visible
21 Sep 6.0 09:07:14 10° NNE 09:08:01 10° NE 09:08:48 10° NE visible
21 Sep 2.6 10:43:30 10° NNW 10:47:53 82° WSW 10:52:13 10° SSE visible
22 Sep 2.9 00:41:00 10° SSW 00:45:04 48° ESE 00:49:11 10° NE visible
22 Sep 5.7 02:22:07 10° W 02:24:38 15° NW 02:27:10 10° N visible
22 Sep 5.5 09:12:49 17° NE 09:12:58 17° NE 09:15:47 10° E visible
22 Sep 3.0 10:49:18 16° NW 10:52:30 45° WSW 10:56:39 10° S visible
23 Sep 2.7 00:45:27 10° SSW 00:49:41 88° ESE 00:53:59 10° NNE visible
23 Sep 5.3 09:20:05 17° E 09:20:05 17° E 09:21:30 10° ESE visible
23 Sep 3.7 10:56:34 25° WSW 10:57:04 25° WSW 11:00:38 10° S visible
24 Sep 3.6 00:50:14 10° SW 00:54:22 51° NW 00:58:33 10° NNE visible
24 Sep 4.9 11:03:42 11° SW 11:03:42 11° SW 11:03:56 10° SW visible
25 Sep 4.7 00:55:21 10° WSW 00:59:06 30° NW 01:02:54 10° N visible
26 Sep 5.5 01:00:52 10° W 01:03:54 19° NW 01:06:59 10° N visible
27 Sep 5.8 01:07:10 10° WNW 01:08:47 12° NW 01:10:25 10° NNW visible
